DELTA 1 DEB

Satellite information

Favourite Embed

Satellite Type and Status

DEBRISIN ORBIT

Key statistics

Satellite DELTA 1 DEB at a glance.

Uptime

17465

Days in orbit

Revolutions

≈ 13.7

Per day

Orbit

LEO

Low Earth Orbit

Inclination

29.1

Latest

Satellite identification and parameters

Extended collection of information and parameters for DELTA 1 DEB.

Object identification

Identified? True

Debris? True

Object name: DELTA 1 DEB

International designator: 1977-065DC

Object number (NORAD): 10306

Object ID (CCSDS): 10306

Country: UNITED STATES OF AMERICA (US)

Current information (Y/N): Y

RCS size: SMALL

Orbital parameters

Period: 105.438 minutes

Inclination: 29.1086 deg

SMA: 7393.083 km

Apoapsis: 1504.296 km

Periapsis: 525.601 km

RAAN: 90.2745 deg

Eccentricy: 0.0661899

Argument of periapsis: 315.5035 deg

Mean anomaly: 39.4169 deg

Mean motion: 13.65728468 rev/day

Mean motion (dot): 0.00005425 rev/day2

B* drag term: 0.0013496 1/REarth

Two-line elements (TLE)

Creation date: May 6, 2025, 3:54 a.m.

Reference frame: TEME

Reference center: EARTH

Epoch: May 5, 2025, 4:41 a.m. UTC

TLE line 0: 0 DELTA 1 DEB

TLE line 1: 1 10306U 77065DC 25125.19537142 .00005425 00000-0 13496-2 0 9993

TLE line 2: 2 10306 29.1086 90.2745 0661899 315.5035 39.4169 13.65728468335177

Live tracking on map

Real-time ground track for satellite DELTA 1 DEB.

In-orbit conjunctions

A list of the most updated potential collisions computed for object DELTA 1 DEB.

Target Orbit TCA Probability of collision Miss distance Type
ORBCOMM FM 1 LEO 2025-02-16 01:05:39 0.0001013267 34.0 (m) PAYLOAD

Associated space launch

Japanese meteorological satellite built by Hughes Space and Communications Company

DELTA 1 DEB was lifted into orbit during the mission ‘Delta 2914 | Himawari’, on board a Delta 2914 space rocket.

The launch took place on July 14, 1977, 10:39 a.m. from Space Launch Complex 17B.

For more information about the launch, click the button.

Launch to space Delta 2914 | Himawari
Delta 2914 | Himawari

Agency: N/A

Status: Launch Successful

Launch date: July 14, 1977, 10:39 a.m. UTC

Rocket: Delta 2914

Launch pad: Space Launch Complex 17B

Location: Cape Canaveral SFS, FL, USA

...

Latest news about this satellite

There are no fresh news available about this satellite. Check back as we update our databases every day.


Newsletter sign-up

Weekly statistics, charts and insights to help you stay on top of the space industry.